Weather History for Casper, WY

Change the Weather History Date:

Wednesday, February 6, 2013

  Actual Average Record
Temperature  
Mean Temperature 33 °F 25 °F  
Max Temperature 46 °F 36 °F 63 °F (1963)
Min Temperature 20 °F 15 °F -26 °F (2014)
Degree Days  
Heating Degree Days 32 40  
Month to date heating degree days 186 240  
Since 1 July heating degree days 4137 4617  
Cooling Degree Days 0 0  
Month to date cooling degree days 0 0  
Year to date cooling degree days 0 0  
Moisture  
Dew Point 17 °F    
Average Humidity 54    
Maximum Humidity 81    
Minimum Humidity 27    
Precipitation  
Precipitation T in 0.02 in 0.21 in (1986)
Month to date precipitation T 0.11  
Year to date precipitation 0.27 0.62  
Snow  
Snow 0.00 in 0.30 in - ()
Month to date snowfall T 2.0  
Since 1 July snowfall 23.2 41.6  
Snow Depth 0.00 in    
Sea Level Pressure  
Sea Level Pressure 29.90 in    
Wind  
Wind Speed 9 mph (NNW)    
Max Wind Speed 20 mph    
Max Gust Speed 26 mph    
Visibility 10 miles    
Events      
T = Trace of Precipitation, MM = Missing Value Source: NWS Daily Summary

Daily Weather History Graph

Daily Weather History Graph

Search for Another Location

Airport:

Trip Planner

Search our weather history database for the weather conditions in past years. The results will help you decide how hot, cold, wet, or windy it might be!

Date:

Astronomy

Feb. 06, 2013 Rise Set
Actual Time 7:14 AM MST 5:25 PM MST
Civil Twilight 6:44 AM MST 5:55 PM MST
Nautical Twilight 6:11 AM MST 6:29 PM MST
Astronomical Twilight 5:38 AM MST 7:02 PM MST
Moon 4:03 AM MST (2/6) 1:44 PM MST (2/6)
Length of Visible Light 11h 10m
Length of Day
10h 11m
Waning Crescent, 16% of the Moon is Illuminated
Feb 6
Waning Crescent
Feb 10
New
Feb 17
First Quarter
Feb 25
Full
Mar 4
Last Quarter

Hourly Weather History & Observations

Time (MST) Temp. Windchill Dew Point Humidity Pressure Visibility Wind Dir Wind Speed Gust Speed Precip Events Conditions
12:53 AM 37.9 °F 30.0 °F 17.1 °F 43% 29.75 in 10.0 mi SW 12.7 mph - N/A   Clear
1:53 AM 37.9 °F 34.4 °F 17.1 °F 43% 29.75 in 10.0 mi WSW 4.6 mph - N/A   Clear
2:53 AM 39.0 °F 30.3 °F 17.1 °F 41% 29.74 in 10.0 mi SW 16.1 mph - N/A   Clear
3:53 AM 36.0 °F 27.5 °F 16.0 °F 44% 29.76 in 10.0 mi SW 12.7 mph - N/A   Clear
4:53 AM 34.0 °F 25.0 °F 14.0 °F 44% 29.78 in 10.0 mi WSW 12.7 mph - N/A   Clear
5:53 AM 34.0 °F 26.6 °F 14.0 °F 44% 29.79 in 10.0 mi SW 9.2 mph - N/A   Partly Cloudy
6:53 AM 35.1 °F 28.6 °F 12.9 °F 40% 29.81 in 10.0 mi WSW 8.1 mph - N/A   Clear
7:53 AM 35.1 °F 27.4 °F 12.9 °F 40% 29.83 in 10.0 mi SW 10.4 mph - N/A   Clear
8:53 AM 37.9 °F 30.9 °F 12.0 °F 35% 29.84 in 10.0 mi WSW 10.4 mph - N/A   Clear
9:53 AM 41.0 °F 34.7 °F 12.0 °F 31% 29.86 in 10.0 mi West 10.4 mph - N/A   Clear
10:53 AM 44.1 °F 38.1 °F 12.9 °F 28% 29.86 in 10.0 mi North 11.5 mph - N/A   Clear
11:53 AM 45.0 °F 38.9 °F 16.0 °F 31% 29.86 in 10.0 mi NE 12.7 mph 21.9 mph N/A   Clear
12:53 PM 44.1 °F 37.1 °F 17.1 °F 34% 29.87 in 10.0 mi NE 15.0 mph 23.0 mph N/A   Clear
1:53 PM 44.1 °F 37.1 °F 18.0 °F 35% 29.87 in 10.0 mi NNE 15.0 mph 20.7 mph N/A   Clear
2:53 PM 44.1 °F 40.1 °F 18.0 °F 35% 29.87 in 10.0 mi Variable 6.9 mph - N/A   Clear
3:53 PM 43.0 °F 38.2 °F 18.0 °F 37% 29.90 in 10.0 mi NNE 8.1 mph - N/A   Clear
4:53 PM 39.9 °F 35.1 °F 18.0 °F 41% 29.94 in 10.0 mi North 6.9 mph - N/A   Mostly Cloudy
5:53 PM 30.0 °F 23.2 °F 17.1 °F 59% 30.00 in 10.0 mi NNE 6.9 mph - N/A   Clear
6:53 PM 26.1 °F 19.4 °F 18.0 °F 71% 30.04 in 10.0 mi NE 5.8 mph - N/A   Clear
7:53 PM 26.1 °F 20.5 °F 19.0 °F 75% 30.06 in 10.0 mi NE 4.6 mph - N/A   Mostly Cloudy
8:53 PM 25.0 °F 19.3 °F 19.0 °F 78% 30.08 in 10.0 mi ENE 4.6 mph - N/A   Partly Cloudy
9:53 PM 28.0 °F 20.0 °F 21.0 °F 75% 30.09 in 10.0 mi North 8.1 mph - N/A   Overcast
10:53 PM 27.0 °F 21.6 °F 21.0 °F 78% 30.10 in 10.0 mi NE 4.6 mph - 0.00 in   Overcast
11:53 PM 21.9 °F 14.5 °F 18.0 °F 85% 30.13 in - North 5.8 mph - N/A   Scattered Clouds